Regional Weather Roundup
Issued by NWS Green Bay, WI

Current Version | Previous Version | Text Only | Print | Product List | Glossary On
Versions: 1 2 3 4 5 6 7 8 9 10 11 12 13 14 15 16 17 18 19 20 21 22 23 24 25 26 27 28 29 30 31 32 33 34 35 36 37 38 39 40 41 42 43 44 45 46 47 48 49 50
000
ASUS43 KGRB 082111
RWRGRB

NORTH-CENTRAL AND NORTHEAST WISCONSIN REGIONAL WEATHER ROUNDUP
NATIONAL WEATHER SERVICE GREEN BAY WI
300 PM CST MON MAR 08 2021

WIZ005-009-010>012-018-019-082200-
NORTH CENTRAL WISCONSIN

CITY           SKY/WX    TMP DP  RH WIND       PRES   REMARKS
IRONWOOD       SUNNY     48  21  34 W8        30.19R
MANITOWISH WTR MOSUNNY   48  20  32 NW8       30.17R
ARBOR VITAE    MOSUNNY   52  27  38 W8        30.17R
EAGLE RIVER    MOSUNNY   48  16  27 NW9       30.16R
LAND O LAKES   MOSUNNY   52  16  23 NW8       30.17R
RHINELANDER    MOSUNNY   51  14  22 NW9       30.18R
PHILLIPS       SUNNY     53  16  23 W5        30.18R
ANTIGO         MOSUNNY   47  27  46 W8        30.18R
TOMAHAWK       MOSUNNY   52  19  27 W6        30.18S
MERRILL        MOSUNNY   52  25  35 W3        30.17S
$$

WIZ013-073-082200-
NORTHEAST WISCONSIN

CITY           SKY/WX    TMP DP  RH WIND       PRES   REMARKS
IRON MOUNTAIN  MOSUNNY   51  29  42 VRB3      30.14R
MARINETTE      MOSUNNY   53  33  46 NW10      30.17R
OCONTO         MOSUNNY   54  34  46 NW8       30.17R
$$

WIZ017-030-035>037-045-082200-
CENTRAL WISCONSIN

CITY           SKY/WX    TMP DP  RH WIND       PRES   REMARKS
MEDFORD        SUNNY     49  25  39 SW6       30.20R
WAUSAU         MOSUNNY   51  30  44 SW12      30.18R
MOSINEE        SUNNY     52  32  46 W10G17    30.21R
MARSHFIELD     SUNNY     54  30  40 NW7       30.21S
WISC RAPIDS    SUNNY     57  28  33 NW9       30.21S
STEVENS POINT  SUNNY     51  31  46 W9        30.21R
WAUPACA        SUNNY     58  30  35 W13       30.20S
SHAWANO        MOSUNNY   57  33  39 W9        30.18R
CLINTONVILLE   SUNNY     56  28  33 NW7       30.19R
WAUTOMA        SUNNY     57  30  35 NW8       30.21R
$$

WIZ038-039-048-051-082200-
FOX VALLEY

CITY           SKY/WX    TMP DP  RH WIND       PRES   REMARKS
NWS GREEN BAY  SUNNY     57  35  43 NW15      30.18R
APPLETON       SUNNY     55  32  41 NW12G18   30.20R
OSHKOSH        SUNNY     57  34  41 W9G21     30.18S
FOND DU LAC    SUNNY     60  36  40 NW10      30.19R
$$

WIZ022-050-052-082200-
EAST CENTRAL WISCONSIN

CITY           SKY/WX    TMP DP  RH WIND       PRES   REMARKS
EPHRAIM        FAIR      52  34  50 W9        30.15R
WASHINGTON ISL FAIR      49  34  56 CALM      30.15S
STURGEON BAY   MOSUNNY   54  35  48 W9        30.17R
MANITOWOC      SUNNY     58  36  43 NW13      30.17S
SHEBOYGAN      SUNNY     56  38  50 W13G23    30.18R
$$

LMZ563-521-522-541>543-082200-
LAKESHORE

STATION/POSITION TIME  TEMP    WIND        PRES    VSBY  WAVE
                       AIR SEA DIR/SP/G                  HT/PER
                 (UTC) (F)     (DEG/KT/KT) (MB)    (MI)  (FT/S)
SHEBOYGAN LKSHOR 2100   57     280/ 13/ 14   N/A
KEWAUNEE LKSHORE 2030   57     300/  9/ 12 1020.6R
NORTHPORT PIER   2040   42     320/  4/  5 1021.7S
SISTER BAY LKSHO 2100   59        CALM       N/A
CHAMBERS ISLAND  2040   53     200/  4/  7   N/A
MENOMINEE LKSHOR 2030   49 35  310/  9/ 12 1020.8R
$$




USA.gov is the U.S. government's official web portal to all federal, state and local government web resources and services.